Weather History for Cozumel, Mexico

Change the Weather History Date:

Monday, January 6, 2014

  Actual Average Record
Temperature  
Mean Temperature 70 °F -  
Max Temperature 73 °F 80 °F 87 °F (2007)
Min Temperature 66 °F 69 °F 51 °F (2012)
Cooling Degree Days 4    
Growing Degree Days 20 (Base 50)    
Moisture  
Dew Point 67 °F    
Average Humidity 96    
Maximum Humidity 100    
Minimum Humidity 78    
Precipitation  
Precipitation 8.55 in - - ()
Sea Level Pressure  
Sea Level Pressure 30.04 in    
Wind  
Wind Speed 6 mph ()    
Max Wind Speed 25 mph    
Max Gust Speed 36 mph    
Visibility 5.7 miles    
Events Rain    
Averages and records for this station are not official NWS values.
T = Trace of Precipitation, MM = Missing Value Source: Averaged Metar Reports

Daily Weather History Graph

Daily Weather History Graph

Search for Another Location

Airport:

Trip Planner

Search our weather history database for the weather conditions in past years. The results will help you decide how hot, cold, wet, or windy it might be!

Date:

Astronomy

Jan. 06, 2014 Rise Set
Actual Time 6:25 AM CST 5:22 PM CST
Civil Twilight 6:01 AM CST 5:46 PM CST
Nautical Twilight 5:33 AM CST 6:13 PM CST
Astronomical Twilight 5:06 AM CST 6:40 PM CST
Moon 10:28 AM CST (1/6) 11:02 PM CST (1/6)
Length of Visible Light 11h 44m
Length of Day
10h 56m
Waxing Crescent, 35% of the Moon is Illuminated
Jan 6
Waxing Crescent
Jan 7
First Quarter
Jan 15
Full
Jan 23
Last Quarter
Jan 30
New

Hourly Weather History & Observations

Time (CST) Temp. Dew Point Humidity Pressure Visibility Wind Dir Wind Speed Gust Speed Precip Events Conditions
12:43 AM 66.2 °F 66.2 °F 100% 29.96 in 7.0 mi Calm Calm - N/A   Scattered Clouds
1:42 AM 68.0 °F 68.0 °F 100% 29.95 in 7.0 mi East 4.6 mph - N/A   Scattered Clouds
2:41 AM 68.0 °F 68.0 °F 100% 29.98 in 7.0 mi Calm Calm - N/A   Partly Cloudy
3:50 AM 68.0 °F 68.0 °F 100% 29.96 in 7.0 mi Calm Calm - N/A   Partly Cloudy
5:09 AM 68.0 °F 68.0 °F 100% 29.96 in 7.0 mi NNE 5.8 mph - N/A   Partly Cloudy
5:53 AM 68.0 °F 68.0 °F 100% 29.94 in 7.0 mi Calm Calm - N/A   Scattered Clouds
6:51 AM 68.0 °F 68.0 °F 100% 30.00 in 1.0 mi ESE 8.1 mph - N/A Rain Heavy Rain
7:45 AM 68.0 °F 68.0 °F 100% 30.03 in 2.0 mi Calm Calm - N/A Rain Light Rain
8:48 AM 68.0 °F 68.0 °F 100% 30.08 in 6.0 mi Calm Calm - N/A   Overcast
9:43 AM 69.8 °F 69.8 °F 100% 30.06 in 6.0 mi Calm Calm - N/A   Mostly Cloudy
10:40 AM 71.6 °F 71.6 °F 100% 30.05 in 7.0 mi North 3.5 mph - N/A   Mostly Cloudy
11:49 AM 73.4 °F 69.8 °F 88% 30.00 in 7.0 mi ENE 5.8 mph - N/A   Mostly Cloudy
12:44 PM 73.4 °F 69.8 °F 88% 30.00 in 5.0 mi ENE 5.8 mph - N/A   Overcast
1:49 PM 71.6 °F 69.8 °F 94% 29.99 in 6.0 mi East 3.5 mph - N/A   Overcast
2:48 PM 69.8 °F 68.0 °F 94% 30.02 in 2.0 mi NNE 17.3 mph - N/A Rain Rain
3:45 PM 68.0 °F 68.0 °F 100% 30.02 in 2.0 mi North 17.3 mph - N/A Rain Rain
4:43 PM 68.0 °F 68.0 °F 100% 30.03 in 4.0 mi North 23.0 mph - N/A Rain Rain
5:52 PM 68.0 °F 66.2 °F 94% 30.04 in 5.0 mi North 21.9 mph 35.7 mph N/A Rain Light Rain
6:51 PM 66.2 °F 66.2 °F 100% 30.08 in 7.0 mi North 25.3 mph - N/A   Overcast
7:46 PM 68.0 °F 64.4 °F 88% 30.11 in 7.0 mi North 20.7 mph 33.4 mph N/A   Overcast
8:46 PM 68.0 °F 64.4 °F 88% 30.17 in 7.0 mi North 20.7 mph 32.2 mph N/A   Overcast
9:41 PM 66.2 °F 64.4 °F 94% 30.15 in 7.0 mi North 19.6 mph 31.1 mph N/A   Overcast
10:40 PM 66.2 °F 62.6 °F 88% 30.17 in 7.0 mi North 23.0 mph 35.7 mph N/A   Overcast
11:43 PM 66.2 °F 59.0 °F 78% 30.16 in 7.0 mi North 21.9 mph 34.5 mph N/A   Overcast